Location: ???????
(54.6339°N, 39.4245°E)
Time: 04:30:08
(UTC+00:00)

Cosmos 1048 Rocket - Pass Details

Date: 19 May 2025
Orbit: 739 x 787 km, 74.0° (Epoch: 19 June)

Event Time Altitude Azimuth Distance (km) Brightness Sun altitude
Exits shadow 22:39:56 20° 190° (S) 1,689 5.2 -13.4°
Maximum altitude 22:43:29 66° 112° (ESE) 808 4.1 -13.2°
Drops below altitude 10° 22:48:33 10° 31° (NNE) 2,266 7.9 -13.0°
Sets 22:50:56 0° 29° (NNE) 3,197 9.2 -12.8°
